TimeEDT,TemperatureF,Dew PointF,Humidity,Sea Level PressureIn,VisibilityMPH,Wind Direction,Wind SpeedMPH,Gust SpeedMPH,PrecipitationIn,Events,Conditions,WindDirDegrees,DateUTC
12:53 AM,75.0,71.1,87,29.95,10.0,Calm,Calm,-,N/A,,Clear,0,2013-11-02 04:53:00
1:53 AM,73.9,70.0,87,29.94,10.0,Calm,Calm,-,N/A,,Clear,0,2013-11-02 05:53:00
2:53 AM,73.0,71.1,93,29.93,10.0,WNW,3.5,-,N/A,,Clear,290,2013-11-02 06:53:00
3:53 AM,72.0,70.0,93,29.91,10.0,Calm,Calm,-,N/A,,Clear,0,2013-11-02 07:53:00
4:53 AM,71.1,70.0,96,29.91,10.0,Calm,Calm,-,N/A,,Clear,0,2013-11-02 08:53:00
5:53 AM,71.1,69.1,93,29.91,10.0,Calm,Calm,-,N/A,,Mostly Cloudy,0,2013-11-02 09:53:00
6:11 AM,71.6,69.8,94,29.90,10.0,Calm,Calm,-,N/A,,Scattered Clouds,0,2013-11-02 10:11:00
6:53 AM,71.1,70.0,96,29.91,10.0,Calm,Calm,-,N/A,,Clear,0,2013-11-02 10:53:00
7:53 AM,71.1,69.1,93,29.91,10.0,Calm,Calm,-,N/A,,Clear,0,2013-11-02 11:53:00
8:53 AM,75.9,73.0,91,29.93,10.0,South,3.5,-,N/A,,Clear,190,2013-11-02 12:53:00
9:53 AM,81.0,71.1,72,29.95,10.0,SW,5.8,-,N/A,,Clear,220,2013-11-02 13:53:00
10:53 AM,82.0,71.1,69,29.95,10.0,SW,9.2,-,N/A,,Mostly Cloudy,230,2013-11-02 14:53:00
11:53 AM,84.0,69.1,61,29.94,10.0,WSW,11.5,-,N/A,,Clear,250,2013-11-02 15:53:00
12:53 PM,86.0,66.0,51,29.91,10.0,SW,11.5,-,N/A,,Clear,220,2013-11-02 16:53:00
1:53 PM,87.1,64.9,48,29.88,10.0,West,6.9,-,N/A,,Partly Cloudy,260,2013-11-02 17:53:00
2:53 PM,88.0,63.0,43,29.86,10.0,West,6.9,-,N/A,,Clear,280,2013-11-02 18:53:00
3:53 PM,87.1,66.0,49,29.84,10.0,SW,6.9,-,N/A,,Partly Cloudy,230,2013-11-02 19:53:00
4:53 PM,87.1,64.0,46,29.84,10.0,WSW,9.2,-,N/A,,Mostly Cloudy,250,2013-11-02 20:53:00
5:53 PM,86.0,64.9,49,29.84,10.0,West,8.1,-,N/A,,Mostly Cloudy,260,2013-11-02 21:53:00
6:53 PM,82.9,68.0,60,29.87,10.0,WSW,12.7,-,N/A,,Mostly Cloudy,250,2013-11-02 22:53:00
7:53 PM,80.1,70.0,71,29.91,10.0,NW,9.2,-,N/A,,Mostly Cloudy,320,2013-11-02 23:53:00
8:53 PM,79.0,71.1,77,29.92,10.0,NNW,5.8,-,N/A,,Mostly Cloudy,340,2013-11-03 00:53:00
9:53 PM,78.1,71.1,79,29.94,10.0,NNW,4.6,-,N/A,,Scattered Clouds,330,2013-11-03 01:53:00
10:53 PM,77.0,70.0,79,29.94,10.0,NW,15.0,19.6,N/A,,Overcast,310,2013-11-03 02:53:00
11:19 PM,75.2,66.2,73,29.93,10.0,North,9.2,-,N/A,,Scattered Clouds,350,2013-11-03 03:19:00
11:53 PM,73.9,64.9,73,29.93,10.0,NW,9.2,-,N/A,,Clear,320,2013-11-03 03:53:00